Content
SEND FEEDBACK

Daily
Averages
Monthly
Summary
United States of America

AGANA, GUAM


Home > North America > United States > Guam
Elevation: 246 feet     Latitude: 13 29N     Longitude: 144 48E

WEATHER
 
SELECT A DAY
Number of Records: 208,892;   Date Range: 1/1/95 - 7/22/14
 
SHARE

PRINT THIS DATA

[ ← Previous Day ]
WEATHER ALMANAC - APRIL 2, 2013
[ Next Day → ]
[ °C ]   °F
Weather ElementAverageHighLow
Temperature82.8 °F86 °F (10:38 am)80.1 °F (3:54 am)
Dewpoint74.5 °F77 °F (10:08 am)70 °F (9:54 pm)
Humidity76.2 %85 % (3:54 am)69 % (4:54 pm)
Barometer29.91 in29.96 in (10:08 am)29.85 in (3:54 pm)
Wind Speed13.6 mph19.6 mph (10:27 am)
Wind Gust27.6 mph (8:54 am)
Weather ElementAverage
Visibility9.1 mi
Wind DirectionE (85.8 °)

Weather ElementTotal
Precipitation0.11 in
Cooling Degree Days18.1 (Base 65)
Growing Degree Days33.1 (Base 50)
Averaged from 33 records on April 2, 2013
WEATHER CONDITIONS BREAKOUT
WIND DIRECTION BREAKOUT
WEATHER BY HOUR - APRIL 2, 2013
[ °C ]   °F
Local TimeTemperatureDewpointHumidityBarometerVisibilityWind DirectionWind SpeedGust SpeedPrecipitationEventsConditions
1:54 AM81.0 °F73.9 °F79 %29.91 in10.0 miEast (90°)10.4 mphPartly Cloudy
2:54 AM81.0 °F73.9 °F79 %29.90 in10.0 miEast (90°)9.2 mphScattered Clouds
3:54 AM80.1 °F75.0 °F85 %29.89 in10.0 miEast (80°)10.4 mph0.03 inMostly Cloudy
4:54 AM81.0 °F73.9 °F79 %29.91 in10.0 miEast (80°)13.8 mphMostly Cloudy
5:54 AM81.0 °F73.9 °F79 %29.92 in10.0 miEast (80°)11.5 mphMostly Cloudy
6:54 AM81.0 °F75.0 °F82 %29.92 in10.0 miEast (80°)13.8 mphPartly Cloudy
7:54 AM82.0 °F75.0 °F79 %29.94 in10.0 miENE (70°)15.0 mphMostly Cloudy
8:54 AM81.0 °F75.0 °F82 %29.95 in4.0 miEast (90°)17.3 mph27.6 mph0.01 inRainLight Rain
9:54 AM82.9 °F75.9 °F79 %29.94 in10.0 miENE (60°)16.1 mph0.01 inMostly Cloudy
10:08 AM82.4 °F77.0 °F84 %29.96 in5.0 miEast (90°)11.5 mph0.00 inRainLight Rain
10:19 AM84.2 °F77.0 °F79 %29.96 in5.0 miEast (90°)15.0 mph0.00 inHaze
10:27 AM84.2 °F77.0 °F79 %29.96 in10.0 miEast (80°)19.6 mph25.3 mph0.00 inMostly Cloudy
10:38 AM86.0 °F77.0 °F74 %29.96 in10.0 miEast (90°)17.3 mph24.2 mph0.00 inMostly Cloudy
10:54 AM84.9 °F75.9 °F74 %29.93 in10.0 miEast (90°)16.1 mph23.0 mph0.00 inMostly Cloudy
11:10 AM80.6 °F75.2 °F84 %29.95 in6.0 miEast (90°)13.8 mph26.5 mph0.00 inRainLight Rain
11:54 AM84.9 °F75.9 °F74 %29.91 in10.0 miESE (110°)11.5 mph0.00 inMostly Cloudy
12:54 PM84.0 °F77.0 °F79 %29.89 in10.0 miESE (110°)12.7 mph20.7 mph0.03 inMostly Cloudy
1:35 PM84.2 °F75.2 °F74 %29.90 in10.0 miEast (80°)17.3 mph25.3 mphMostly Cloudy
1:54 PM86.0 °F75.9 °F72 %29.87 in10.0 miEast (100°)16.1 mph24.2 mphScattered Clouds
2:08 PM82.4 °F75.2 °F79 %29.89 in5.0 miEast (90°)15.0 mph25.3 mph0.01 inRainRain
2:15 PM82.4 °F77.0 °F84 %29.88 in10.0 miEast (90°)15.0 mph0.01 inRainLight Rain
2:54 PM86.0 °F75.9 °F72 %29.86 in10.0 miEast (80°)13.8 mph21.9 mph0.01 inOvercast
3:54 PM84.9 °F75.0 °F72 %29.85 in8.0 miEast (80°)17.3 mphRainLight Rain
4:10 PM82.4 °F77.0 °F84 %29.87 in6.0 miEast (80°)13.8 mph17.3 mph0.00 inRainLight Rain
4:30 PM84.2 °F75.2 °F74 %29.87 in10.0 miEast (80°)13.8 mph0.00 inScattered Clouds
4:54 PM84.0 °F73.0 °F69 %29.85 in10.0 miEast (90°)13.8 mph24.2 mph0.00 inScattered Clouds
5:54 PM84.0 °F73.0 °F69 %29.86 in10.0 miEast (80°)12.7 mphPartly Cloudy
6:54 PM82.0 °F72.0 °F71 %29.88 in10.0 miEast (90°)10.4 mphScattered Clouds
7:54 PM82.0 °F71.1 °F69 %29.90 in10.0 miEast (80°)10.4 mphMostly Cloudy
8:54 PM82.0 °F71.1 °F69 %29.91 in10.0 miEast (80°)10.4 mphClear
9:54 PM81.0 °F70.0 °F69 %29.91 in10.0 miEast (80°)11.5 mphPartly Cloudy
10:54 PM81.0 °F70.0 °F69 %29.91 in10.0 miEast (80°)11.5 mphPartly Cloudy
11:54 PM81.0 °F70.0 °F69 %29.91 in10.0 miEast (100°)10.4 mphMostly Cloudy
Hourly data recorded from PGUM, located miles away from Agana, Guam







STORIES FROM OUR PARTNERS